DW2685 Weather Reports


Display with metric or nautical units.
time (UTC)temp
F
wind
direction
speed
MPH
gust
MPH
rain 1hr
in
rain 24hr
in
rain mn
in
humidity
%
barometer
mb
20210922105100 71 323 0.0 0.0 0.00 0.36 0.11 99 1015.1
20210922104632 71 326 0.0 0.0 0.00 0.36 0.11 99 1015.2
20210922104059 71 326 0.0 0.0 0.00 0.36 0.11 99 1015.2
20210922103605 71 326 0.0 0.0 0.00 0.36 0.11 99 1015.2
20210922103238 71 326 0.0 0.0 0.00 0.36 0.11 99 1015.1
20210922102605 71 326 0.0 0.0 0.00 0.36 0.11 99 1015.1
20210922102059 71 326 0.0 0.0 0.00 0.36 0.11 99 1015.1
20210922101631 71 326 0.0 0.0 0.00 0.36 0.11 99 1015.1
20210922101059 71 326 0.0 0.0 0.00 0.36 0.11 99 1015.1
20210922100649 71 326 0.0 0.0 0.00 0.36 0.11 98 1015.1
20210922100225 71 326 0.0 0.0 0.00 0.38 0.11 99 1015.1
20210922095558 71 326 0.0 0.0 0.00 0.38 0.11 98 1015.1
20210922095106 71 326 0.0 0.0 0.00 0.38 0.11 99 1015.0
20210922094646 71 326 0.0 0.0 0.00 0.38 0.11 99 1014.9
20210922094058 71 326 0.0 0.0 0.00 0.38 0.11 99 1015.0
20210922093615 71 326 0.0 0.0 0.00 0.38 0.11 99 1015.0
20210922093114 71 326 0.0 0.0 0.00 0.38 0.11 99 1014.9
20210922092555 71 326 0.0 0.0 0.00 0.38 0.11 99 1014.9
20210922092112 71 325 0.0 0.0 0.00 0.38 0.11 98 1015.0
20210922091646 71 325 0.0 0.0 0.00 0.38 0.11 98 1014.9
20210922091055 71 325 0.0 0.0 0.01 0.38 0.11 98 1015.0
20210922090607 71 325 0.0 0.0 0.02 0.38 0.11 98 1015.1
20210922090154 71 325 0.0 0.0 0.07 0.40 0.11 98 1015.2
20210922085557 71 325 0.0 0.0 0.09 0.40 0.11 98 1015.3
20210922085053 71 325 0.0 0.0 0.10 0.40 0.11 98 1015.3
20210922084619 71 325 0.0 0.0 0.10 0.40 0.11 98 1015.2
20210922084051 71 325 0.0 0.0 0.10 0.40 0.11 98 1015.3
20210922083610 71 325 0.0 0.0 0.10 0.40 0.11 98 1015.4
20210922083201 71 325 0.0 0.0 0.10 0.40 0.11 99 1015.5
20210922082549 71 325 0.0 0.0 0.10 0.40 0.11 98 1015.6
20210922082049 71 325 0.0 0.0 0.10 0.40 0.11 99 1015.6
20210922081612 71 325 0.0 0.0 0.10 0.40 0.11 98 1015.7
20210922081059 71 325 0.0 0.0 0.09 0.39 0.10 98 1015.8
20210922080608 71 325 0.0 0.0 0.07 0.37 0.08 98 1015.8
20210922080155 71 325 0.0 0.0 0.03 0.33 0.04 99 1015.9
20210922075556 71 325 0.0 0.0 0.01 0.31 0.02 99 1015.9
20210922075044 71 325 0.0 0.0 0.00 0.30 0.01 99 1015.9
20210922074619 71 325 0.0 0.0 0.00 0.30 0.01 99 1016.0
20210922074043 71 325 0.0 0.0 0.00 0.30 0.01 99 1016.1
20210922073542 71 325 0.0 0.0 0.00 0.30 0.01 99 1016.1
20210922073119 71 325 0.0 0.0 0.00 0.30 0.01 98 1016.1
20210922072540 71 325 0.0 0.0 0.00 0.30 0.01 98 1016.3
20210922072040 71 325 0.0 0.0 0.00 0.30 0.01 98 1016.4
20210922071615 71 325 0.0 0.0 0.00 0.30 0.01 98 1016.6
20210922071044 71 11 0.0 0.0 0.00 0.30 0.01 98 1016.5
20210922070544 71 11 0.0 0.0 0.00 0.30 0.01 98 1016.6
20210922070054 71 11 0.0 0.0 0.00 0.30 0.01 98 1016.7
20210922065538 71 11 0.0 0.0 0.00 0.30 0.01 98 1016.6
20210922065044 71 11 0.0 0.0 0.01 0.30 0.01 98 1016.6
20210922064708 71 11 0.0 0.0 0.01 0.30 0.01 98 1016.7
20210922064047 71 11 0.0 0.0 0.01 0.30 0.01 98 1016.8
20210922063536 71 11 0.0 0.0 0.01 0.30 0.01 98 1016.8
20210922063134 71 11 0.0 0.0 0.01 0.30 0.01 98 1016.9
20210922062535 71 11 0.0 0.0 0.01 0.30 0.01 98 1016.9
20210922062048 71 11 0.0 0.0 0.01 0.30 0.01 98 1017.0
20210922061548 71 11 0.0 0.0 0.01 0.30 0.01 98 1017.0
20210922061109 71 11 0.0 0.0 0.01 0.30 0.01 98 1017.0
20210922060547 71 11 0.0 0.0 0.01 0.30 0.01 98 1017.0
20210922060050 71 11 0.0 0.0 0.01 0.30 0.01 98 1017.0
20210922055544 71 11 0.0 0.0 0.00 0.28 0.00 98 1017.0
20210922055105 71 11 0.0 0.0 0.00 0.28 0.00 98 1017.0
20210922054554 71 11 0.0 0.0 0.00 0.28 0.00 98 1017.1
20210922054030 72 27 0.0 0.0 0.00 0.28 0.00 98 1017.1
20210922053539 72 29 0.0 0.0 0.00 0.28 0.00 98 1017.3
20210922053109 72 29 0.0 0.0 0.00 0.28 0.00 98 1017.3
20210922052526 72 29 0.0 0.0 0.00 0.28 0.00 98 1017.3
20210922052041 72 29 0.0 0.0 0.00 0.28 0.00 98 1017.4
20210922051607 72 29 0.0 0.0 0.00 0.28 0.00 98 1017.4
20210922051022 72 29 0.0 0.0 0.00 0.28 0.00 98 1017.4
20210922050530 72 29 0.0 0.0 0.00 0.28 0.00 98 1017.5
20210922050036 72 29 0.0 0.0 0.00 0.28 0.00 98 1017.5
20210922045526 72 29 0.0 0.0 0.00 0.28 0.00 98 1017.6
20210922045015 72 29 0.0 0.0 0.00 0.28 0.00 98 1017.7
20210922044529 72 29 0.0 0.0 0.00 0.28 0.00 98 1017.9
20210922044017 72 29 0.0 0.0 0.00 0.28 0.00 98 1017.9
20210922043511 72 29 0.0 0.0 0.00 0.28 0.00 98 1018.0
20210922043011 72 29 0.0 0.0 0.00 0.28 0.00 98 1018.0
20210922042514 72 34 0.0 0.0 0.00 0.28 0.00 98 1018.1
20210922042007 72 34 0.0 0.0 0.00 0.28 0.00 98 1018.2
20210922041505 72 34 0.0 0.0 0.00 0.28 0.00 98 1018.3
20210922041004 72 34 0.0 0.0 0.00 0.28 0.00 98 1018.4
20210922040506 72 34 0.0 0.0 0.00 0.28 0.00 98 1018.4
20210922040015 72 34 0.0 0.0 0.00 0.28 0.28 98 1018.4
20210922035502 72 34 0.0 0.0 0.00 0.28 0.28 98 1018.4
20210922035001 72 34 0.0 0.0 0.00 0.28 0.28 98 1018.5
20210922034504 72 34 0.0 0.0 0.00 0.28 0.28 98 1018.5
20210922034100 72 34 0.0 0.0 0.00 0.28 0.28 98 1018.5
20210922033559 72 34 0.0 0.0 0.00 0.28 0.28 98 1018.5
20210922033134 72 34 0.0 0.0 0.00 0.28 0.28 98 1018.6
20210922032600 72 34 0.0 0.0 0.00 0.28 0.28 98 1018.6
20210922032059 71 34 0.0 0.0 0.00 0.28 0.28 98 1018.6
20210922031626 71 34 0.0 0.0 0.00 0.28 0.28 98 1018.5
20210922031106 71 34 0.0 0.0 0.00 0.28 0.28 98 1018.5
20210922030604 72 34 0.0 0.0 0.00 0.28 0.28 98 1018.5
20210922025603 72 34 0.0 0.0 0.00 0.28 0.28 98 1018.4
20210922025058 72 34 0.0 0.0 0.00 0.28 0.28 98 1018.4
20210922024640 72 34 0.0 0.0 0.00 0.28 0.28 98 1018.4
20210922024112 72 34 0.0 0.0 0.00 0.28 0.28 98 1018.5
20210922023557 72 34 0.0 0.0 0.00 0.28 0.28 98 1018.5
20210922023132 72 34 0.0 0.0 0.00 0.28 0.28 98 1018.5
20210922022558 72 34 0.0 0.0 0.00 0.28 0.28 98 1018.5
20210922021613 72 34 0.0 0.0 0.01 0.28 0.28 98 1018.5
20210922021102 72 34 0.0 0.0 0.01 0.28 0.28 98 1018.6
20210922020556 72 34 0.0 0.0 0.02 0.28 0.28 98 1018.7
20210922020122 72 34 0.0 0.0 0.02 0.28 0.28 97 1018.6
20210922015555 72 34 0.0 0.0 0.02 0.28 0.28 97 1018.5
20210922015056 72 34 0.0 0.0 0.02 0.28 0.28 97 1018.5
20210922014634 72 34 0.0 0.0 0.02 0.28 0.28 98 1018.6
20210922014055 72 34 0.0 0.0 0.02 0.28 0.28 97 1018.6
20210922013554 72 34 0.0 0.0 0.02 0.28 0.28 97 1018.6
20210922013138 72 32 0.0 0.0 0.02 0.28 0.28 98 1018.6
20210922012555 72 45 0.0 0.0 0.02 0.28 0.28 98 1018.6
20210922012054 72 45 0.0 0.0 0.02 0.28 0.28 98 1018.6
20210922011703 72 45 0.0 0.0 0.01 0.28 0.28 97 1018.5
20210922011102 72 45 0.0 0.0 0.00 0.27 0.27 97 1018.4
20210922010557 72 45 0.0 0.0 0.00 0.27 0.27 97 1018.3
20210922010124 72 45 0.0 0.0 0.00 0.28 0.27 97 1018.3
20210922005605 72 45 0.0 0.0 0.00 0.28 0.27 97 1018.4
20210922005054 72 45 0.0 0.0 0.00 0.28 0.27 97 1018.4
20210922004053 72 45 0.0 0.0 0.00 0.28 0.27 97 1018.4
20210922003553 72 45 0.0 0.0 0.00 0.28 0.27 97 1018.4
20210922003115 72 45 0.0 0.0 0.00 0.28 0.27 97 1018.3
20210922002612 72 45 0.0 0.0 0.01 0.28 0.27 97 1018.4
20210922002052 72 45 0.0 0.0 0.02 0.28 0.27 97 1018.3
20210922001733 72 45 0.0 0.0 0.05 0.28 0.27 96 1018.3
20210922001051 72 45 0.0 0.0 0.08 0.28 0.27 96 1018.2
20210922000618 72 45 0.0 0.0 0.08 0.28 0.27 96 1018.3
20210922000141 72 45 0.0 0.0 0.08 0.28 0.27 96 1018.3
20210921235559 73 45 0.0 0.0 0.08 0.28 0.27 96 1018.1
20210921235056 73 45 0.0 0.0 0.08 0.28 0.27 96 1018.2
20210921234604 73 45 0.0 0.0 0.08 0.28 0.27 95 1018.2
20210921234051 73 45 0.0 0.0 0.08 0.28 0.27 95 1018.2
20210921233615 73 45 0.0 0.0 0.08 0.28 0.27 95 1018.2
20210921233206 73 45 0.0 0.0 0.08 0.28 0.27 95 1018.2
20210921232551 73 45 0.0 0.0 0.07 0.28 0.26 95 1018.2
20210921232051 73 45 0.0 3.0 0.06 0.27 0.25 94 1018.2
20210921231704 74 45 0.0 4.0 0.03 0.24 0.22 93 1018.2
20210921231053 74 69 1.0 4.0 0.00 0.21 0.19 93 1018.2
20210921230549 74 319 0.0 3.0 0.00 0.21 0.19 94 1018.1
20210921230119 74 26 0.0 1.0 0.00 0.21 0.19 94 1018.0
20210921225559 75 61 0.0 1.0 0.00 0.21 0.19 94 1018.2
20210921225046 75 159 0.0 1.0 0.00 0.21 0.19 94 1018.3
20210921224621 75 302 0.0 1.0 0.00 0.21 0.19 94 1018.3
20210921224055 75 350 0.0 1.0 0.00 0.21 0.19 94 1018.2
20210921223549 75 242 0.0 1.0 0.00 0.21 0.19 94 1018.3
20210921223101 75 86 0.0 3.0 0.00 0.21 0.19 93 1018.2
20210921222542 75 35 0.0 3.0 0.00 0.21 0.19 93 1018.3
20210921222044 74 105 0.0 1.0 0.00 0.21 0.19 94 1018.2
20210921221648 74 105 0.0 1.0 0.00 0.21 0.19 94 1018.1
20210921221036 74 198 0.0 2.0 0.00 0.21 0.19 94 1018.1
20210921220547 74 198 0.0 2.0 0.00 0.21 0.19 94 1018.2
20210921220200 74 200 0.0 1.0 0.00 0.21 0.19 94 1018.2
20210921215535 75 200 0.0 1.0 0.00 0.21 0.19 94 1018.3
20210921215040 75 290 0.0 1.0 0.00 0.21 0.19 94 1018.3
20210921214610 75 11 0.0 0.0 0.00 0.21 0.19 94 1018.3
20210921214036 75 64 0.0 1.0 0.00 0.21 0.19 93 1018.4
20210921213539 75 64 0.0 1.0 0.00 0.21 0.19 94 1018.3
20210921213034 74 64 0.0 1.0 0.00 0.21 0.19 94 1018.3
20210921212528 74 64 0.0 1.0 0.00 0.21 0.19 95 1018.4
20210921212025 74 64 0.0 0.0 0.00 0.21 0.19 95 1018.5
20210921211529 74 64 0.0 2.0 0.00 0.21 0.19 94 1018.5
20210921211026 74 64 0.0 2.0 0.00 0.21 0.19 94 1018.5
20210921210520 74 65 0.0 2.0 0.00 0.21 0.19 95 1018.5
20210921210029 74 65 0.0 2.0 0.00 0.21 0.19 94 1018.6
20210921205517 74 264 0.0 2.0 0.00 0.21 0.19 94 1018.6
20210921205019 73 72 0.0 2.0 0.00 0.21 0.19 94 1018.6
20210921204524 73 227 0.0 1.0 0.00 0.21 0.19 95 1018.6
20210921204013 73 142 0.0 1.0 0.00 0.21 0.19 96 1018.7
20210921203518 73 42 0.0 1.0 0.00 0.21 0.19 96 1018.8
20210921203013 73 38 0.0 3.0 0.00 0.21 0.19 96 1018.8
20210921202515 73 38 1.0 3.0 0.00 0.21 0.19 95 1018.8
20210921202007 73 27 0.0 1.0 0.00 0.21 0.19 96 1018.8
20210921201531 73 320 0.0 1.0 0.00 0.21 0.19 96 1018.9
20210921201008 73 59 0.0 3.0 0.00 0.21 0.19 95 1018.9
20210921200504 73 81 0.0 3.0 0.00 0.21 0.19 95 1019.0
20210921200002 73 142 0.0 2.0 0.00 0.21 0.19 95 1019.0
20210921195103 73 67 0.0 1.0 0.00 0.21 0.19 95 1019.0
20210921194733 73 66 0.0 1.0 0.00 0.21 0.19 95 1019.1
20210921194055 73 91 0.0 2.0 0.00 0.21 0.19 96 1019.1
20210921193614 73 91 0.0 2.0 0.00 0.21 0.19 95 1019.1
20210921193130 73 90 0.0 1.0 0.00 0.21 0.19 96 1019.2
20210921192551 73 90 0.0 2.0 0.00 0.21 0.19 95 1019.2
20210921192056 73 51 1.0 2.0 0.00 0.21 0.19 94 1019.2
20210921191638 73 53 0.0 3.0 0.00 0.21 0.19 95 1019.3
20210921191057 73 90 0.0 3.0 0.00 0.21 0.19 95 1019.2
20210921190546 73 342 0.0 2.0 0.00 0.21 0.19 95 1019.4
20210921190125 73 90 0.0 4.0 0.00 0.21 0.19 96 1019.3
20210921185606 73 109 0.0 2.0 0.00 0.21 0.19 96 1019.4
20210921185050 72 146 0.0 2.0 0.00 0.21 0.19 96 1019.5
20210921184645 72 146 0.0 2.0 0.00 0.21 0.19 95 1019.6
20210921184042 72 84 0.0 3.0 0.00 0.21 0.19 96 1019.7
20210921183545 72 85 0.0 3.0 0.00 0.21 0.19 95 1019.7
20210921183102 72 101 0.0 2.0 0.00 0.21 0.19 95 1019.9
20210921182551 72 44 0.0 2.0 0.00 0.21 0.19 97 1019.9
20210921182038 72 44 0.0 2.0 0.00 0.21 0.19 96 1020.0
20210921181606 72 327 0.0 2.0 0.00 0.21 0.19 96 1020.1
20210921181047 72 327 0.0 2.0 0.00 0.21 0.19 96 1020.3
20210921180541 72 45 0.0 1.0 0.00 0.21 0.19 97 1020.4
20210921180123 72 232 0.0 0.0 0.00 0.21 0.19 97 1020.4
20210921175534 72 155 0.0 5.0 0.00 0.21 0.19 97 1020.4
20210921175035 72 334 1.0 5.0 0.00 0.21 0.19 96 1020.4
20210921174603 72 38 0.0 4.0 0.00 0.21 0.19 96 1020.5
20210921174026 72 110 0.0 0.0 0.00 0.21 0.19 96 1020.6
20210921173527 72 114 0.0 0.0 0.01 0.21 0.19 96 1020.7
20210921173039 72 65 0.0 1.0 0.01 0.21 0.19 96 1020.8
20210921172523 72 31 0.0 1.0 0.01 0.21 0.19 96 1020.8
20210921172021 72 304 0.0 2.0 0.01 0.21 0.19 98 1020.8
20210921171523 71 304 0.0 2.0 0.01 0.21 0.19 97 1020.8
20210921171019 71 165 0.0 3.0 0.02 0.21 0.19 96 1020.9
20210921170532 71 257 0.0 3.0 0.02 0.21 0.19 97 1020.9
20210921170036 71 360 0.0 3.0 0.02 0.21 0.19 97 1021.0
20210921165532 71 83 0.0 6.0 0.02 0.21 0.19 97 1021.0
20210921165016 71 129 1.0 5.0 0.02 0.21 0.19 97 1021.0
20210921164544 71 360 0.0 2.0 0.02 0.21 0.19 97 1020.9
20210921164021 71 62 0.0 3.0 0.03 0.21 0.19 98 1021.0
20210921163519 71 70 0.0 4.0 0.02 0.20 0.18 97 1021.0
20210921163019 71 47 0.0 3.0 0.02 0.20 0.18 97 1021.0
20210921162509 71 46 0.0 3.0 0.03 0.20 0.18 97 1021.1
20210921162011 71 75 0.0 2.0 0.03 0.20 0.18 97 1021.2
20210921161515 71 75 0.0 2.0 0.04 0.20 0.18 97 1021.3
20210921161008 71 351 0.0 2.0 0.03 0.19 0.17 97 1021.3
20210921160515 71 360 0.0 2.0 0.04 0.19 0.17 97 1021.3
20210921160008 71 341 0.0 2.0 0.04 0.19 0.17 98 1021.3
20210921155506 70 90 0.0 1.0 0.04 0.19 0.17 98 1021.4
20210921155010 70 88 0.0 1.0 0.04 0.19 0.17 97 1021.3
20210921154539 70 88 0.0 3.0 0.04 0.19 0.17 97 1021.3
20210921154015 70 88 0.0 5.0 0.03 0.18 0.16 98 1021.4
20210921153503 70 56 0.0 5.0 0.03 0.18 0.16 97 1021.4
20210921153011 70 131 0.0 2.0 0.03 0.18 0.16 97 1021.2
20210921152514 70 5 0.0 2.0 0.02 0.17 0.15 98 1021.2
20210921152001 70 5 0.0 3.0 0.02 0.17 0.15 98 1021.3
20210921151501 70 50 1.0 6.0 0.01 0.16 0.14 97 1021.3
20210921151001 70 335 1.0 6.0 0.01 0.16 0.14 97 1021.3
20210921150603 70 28 0.0 3.0 0.01 0.16 0.14 98 1021.3
20210921150214 70 28 0.0 3.0 0.01 0.15 0.13 97 1021.2
20210921145601 70 53 0.0 2.0 0.01 0.15 0.13 98 1021.3
20210921144703 70 49 1.0 3.0 0.01 0.15 0.13 98 1021.2
20210921144058 70 76 0.0 2.0 0.02 0.15 0.13 98 1021.2
20210921143622 69 77 0.0 2.0 0.02 0.15 0.13 98 1021.2
20210921143137 69 71 0.0 2.0 0.02 0.15 0.13 98 1021.2
20210921142619 69 46 0.0 3.0 0.02 0.15 0.13 98 1021.1
20210921142058 69 49 1.0 3.0 0.02 0.15 0.13 98 1021.1
20210921141625 69 41 0.0 3.0 0.02 0.15 0.13 98 1021.0
20210921141054 69 220 1.0 3.0 0.02 0.15 0.13 98 1021.0
20210921140553 69 105 0.0 3.0 0.02 0.15 0.13 98 1021.0
20210921140134 69 202 0.0 2.0 0.01 0.14 0.12 98 1020.9
20210921135602 69 331 0.0 3.0 0.02 0.14 0.12 98 1020.9
20210921135128 68 5 1.0 4.0 0.02 0.14 0.12 98 1020.9
20210921134758 68 59 1.0 4.0 0.02 0.14 0.12 98 1020.8
20210921134058 68 46 1.0 3.0 0.02 0.13 0.11 98 1020.9
20210921133551 68 318 0.0 4.0 0.02 0.13 0.11 98 1021.0
20210921133217 68 319 1.0 4.0 0.02 0.13 0.11 98 1020.8
20210921132600 68 50 0.0 3.0 0.02 0.13 0.11 98 1020.9
20210921132051 68 113 1.0 3.0 0.02 0.13 0.11 98 1020.8
20210921131632 68 74 0.0 3.0 0.02 0.13 0.11 98 1020.8
20210921131101 68 315 0.0 3.0 0.02 0.13 0.11 98 1020.8
20210921130550 68 38 0.0 2.0 0.02 0.13 0.11 98 1020.8
20210921130118 68 176 0.0 2.0 0.02 0.13 0.11 98 1020.8
20210921125549 68 128 0.0 3.0 0.01 0.12 0.10 98 1020.9
20210921125104 68 92 1.0 3.0 0.01 0.12 0.10 98 1020.9
20210921124621 67 265 0.0 3.0 0.00 0.11 0.09 98 1021.0
20210921124048 67 155 0.0 3.0 0.00 0.11 0.09 98 1021.0
20210921123547 67 65 1.0 5.0 0.00 0.11 0.09 98 1020.9
20210921123102 67 65 1.0 5.0 0.00 0.11 0.09 98 1020.9
20210921122547 67 57 0.0 9.0 0.00 0.11 0.09 98 1020.9
20210921122051 67 57 2.0 9.0 0.00 0.11 0.09 98 1020.9
20210921121606 67 36 0.0 1.0 0.00 0.11 0.09 98 1020.8
20210921121047 67 37 0.0 4.0 0.00 0.11 0.09 98 1020.9
20210921120547 67 37 0.0 4.0 0.00 0.11 0.09 98 1020.8
20210921120132 67 19 1.0 4.0 0.00 0.11 0.09 98 1020.8
20210921115545 67 290 0.0 3.0 0.01 0.11 0.09 98 1020.8
20210921115045 67 30 0.0 3.0 0.02 0.11 0.09 98 1020.8
20210921114612 67 20 1.0 3.0 0.02 0.11 0.09 98 1020.7
20210921114043 67 198 0.0 3.0 0.03 0.11 0.09 98 1020.6
20210921113543 67 17 0.0 3.0 0.04 0.11 0.09 97 1020.5
20210921113108 66 71 0.0 0.0 0.04 0.11 0.09 98 1020.5
20210921112542 66 65 0.0 3.0 0.04 0.11 0.09 97 1020.5
20210921112044 66 311 0.0 3.0 0.05 0.11 0.09 97 1020.5
20210921111552 66 339 1.0 4.0 0.05 0.11 0.09 97 1020.6
20210921111041 66 65 0.0 5.0 0.05 0.11 0.09 97 1020.7
20210921110545 66 175 0.0 6.0 0.05 0.11 0.09 97 1020.5
20210921110119 66 59 1.0 6.0 0.05 0.11 0.09 97 1020.7
20210921105541 66 343 0.0 5.0 0.04 0.10 0.08 97 1020.6